Theta_e
323 322 323 323 323 322 321 319 315 315 314 315 313 312 311 312 314 314 313 316 317 319 319 315 312 318 321 324 325 327 331 332 333 335 336 337 336 330 334 331 332 332 330
323 323 324 322 322 322 319 316 313 313 312 312 310 307 308 310 310 308 311 314 315 317 319 315 314 311 315 317 323 325 325 329 333 334 334 337 337 337 334 332 332 332 330
323 323 323 322 321 321 320 316 313 312 312 310 307 306 308 309 309 309 309 311 314 313 314 313 316 317 314 313 317 322 322 323 327 331 333 335 335 334 334 332 332 331 330
323 321 322 322 321 319 317 315 313 312 310 307 305 306 307 308 309 309 310 309 306 306 305 307 312 312 313 312 314 316 317 314 322 325 330 333 334 333 333 334 332 330 331
323 322 322 321 319 317 315 314 312 310 308 307 307 307 308 309 309 309 308 308 307 305 303 302 301 306 310 312 313 314 312 310 311 312 323 328 332 333 331 331 333 330 329
322 321 320 317 316 314 313 312 310 309 308 308 306 308 307 308 309 308 308 307 306 305 304 304 303 302 304 312 313 311 315 315 312 309 310 322 328 329 331 331 330 328 328
320 319 316 315 314 312 311 309 308 308 307 306 303 304 305 306 307 306 306 305 305 304 305 306 306 307 309 310 311 313 316 315 315 313 312 310 314 323 329 330 330 326 326
317 316 314 313 311 309 308 308 307 307 307 304 301 303 304 305 306 305 304 303 303 303 305 306 307 308 308 308 309 311 314 315 316 316 316 316 318 322 322 325 328 329 328
314 313 311 309 308 307 306 307 307 306 306 303 301 302 303 303 302 302 302 302 302 303 304 305 306 307 308 308 308 308 308 309 313 316 315 316 315 318 317 312 324 328 328
311 309 307 306 306 306 306 305 305 305 303 301 301 300 300 301 301 301 302 301 301 301 302 304 304 305 306 306 307 306 305 305 306 309 313 314 314 314 313 313 312 325 328
307 306 305 304 302 301 302 302 302 301 300 301 301 300 300 300 301 301 301 301 300 300 299 301 302 303 303 303 304 304 304 304 305 307 310 313 315 316 317 318 319 318 326
305 303 303 303 302 301 301 300 299 299 299 300 300 300 300 300 300 300 300 300 299 299 298 299 300 301 301 301 300 301 302 302 302 303 305 309 312 315 315 315 315 318 320
303 303 302 301 301 300 300 299 299 299 299 299 299 299 299 299 299 299 298 298 298 298 298 298 298 298 299 299 300 299 299 300 300 301 303 305 309 313 314 315 315 318 317
301 301 300 300 300 300 299 299 298 298 298 298 298 299 299 298 298 298 298 298 298 298 298 297 297 297 298 298 298 299 300 299 300 300 302 305 307 309 310 313 313 316 317
301 300 299 299 298 298 298 298 298 298 298 297 297 297 298 297 297 297 297 297 297 297 297 297 297 296 296 296 298 299 300 300 300 301 301 304 306 308 310 311 312 317 316
300 299 298 297 297 297 297 297 297 297 297 297 297 297 297 296 296 296 296 296 296 295 295 295 295 295 296 296 297 298 299 300 300 301 301 303 304 307 309 313 313 314 316
298 298 298 298 297 297 297 297 297 296 296 296 297 297 297 296 296 296 295 295 295 294 295 294 294 294 295 295 295 296 298 299 300 301 302 302 303 305 308 310 313 316 315
298 298 298 297 297 296 296 295 295 296 296 296 297 297 296 295 295 295 295 294 294 295 294 294 294 294 295 295 296 296 297 298 299 300 301 301 303 304 307 308 312 315 317
297 297 296 296 295 295 295 295 296 296 295 295 295 295 295 294 294 294 294 294 295 295 294 294 295 295 296 296 296 296 297 297 298 299 300 301 302 303 306 308 310 313 317
296 297 296 295 295 295 294 294 294 294 294 294 293 293 293 293 293 293 293 293 294 294 294 295 295 296 296 296 297 297 297 297 297 298 299 300 302 303 305 307 309 313 316
295 295 295 294 295 294 294 293 294 294 293 293 292 291 291 291 291 292 292 292 293 293 294 294 295 295 295 296 296 296 297 297 297 297 298 300 300 302 305 307 308 310 315
295 295 295 294 294 294 295 295 294 293 292 290 290 290 290 290 290 291 292 292 293 293 293 293 294 294 294 294 295 296 296 296 297 297 298 299 300 302 304 306 307 308 314
295 295 294 294 294 294 295 294 293 291 290 289 289 289 289 289 289 289 290 291 292 292 292 292 293 293 293 293 294 295 296 296 296 297 298 299 300 302 304 306 306 309 312
294 294 294 294 294 294 294 294 293 291 290 289 289 289 289 289 289 289 289 291 291 292 292 292 292 292 293 293 293 294 295 295 296 297 298 299 300 303 304 305 307 309 312
294 293 292 292 293 293 293 293 293 292 290 290 290 290 290 289 290 289 289 289 290 291 291 292 292 292 292 292 292 294 295 295 295 297 297 299 301 303 304 305 308 309 311
294 294 292 291 293 294 293 293 293 292 291 291 291 291 290 290 290 290 290 290 290 290 290 291 292 292 292 292 293 293 294 295 295 297 297 299 301 303 304 304 306 309 311
Wind_Speed
11 9 8 5 4 4 2 2 5 8 12 15 18 20 21 16 16 18 19 13 13 12 14 16 9 10 11 12 19 20 15 14 18 19 15 15 11 8 20 14 13 13 13
12 8 6 4 1 2 2 6 9 12 16 20 22 22 17 15 18 18 14 15 16 15 12 12 12 12 13 12 18 20 17 11 14 19 16 17 14 13 14 13 14 14 15
12 11 9 7 4 3 6 10 12 16 21 24 24 20 17 16 16 16 18 13 14 18 17 19 14 11 17 15 21 20 17 14 14 15 14 16 15 17 18 14 13 14 16
11 10 8 7 7 7 9 11 14 18 22 24 21 20 19 17 16 15 15 19 20 23 21 18 19 19 16 16 20 21 20 19 16 13 13 13 15 15 19 15 17 17 16
12 8 7 8 7 6 9 13 16 20 22 20 19 19 18 17 14 17 22 25 29 29 26 22 20 20 18 21 24 23 21 21 18 17 13 12 13 16 16 15 19 18 18
9 5 7 6 6 8 12 14 17 18 18 20 20 18 18 14 18 21 25 28 29 28 23 19 19 18 19 22 23 23 17 16 17 18 17 12 12 12 18 20 16 19 20
5 5 6 6 8 10 12 14 15 18 20 23 23 19 18 16 20 22 25 27 29 21 17 18 16 14 14 17 18 17 15 14 13 13 18 17 16 17 10 12 16 19 22
4 6 7 8 10 13 15 15 17 18 24 27 21 18 15 14 20 24 26 26 21 16 13 14 17 18 17 16 19 24 20 17 16 14 17 17 15 16 16 15 18 14 11
5 7 8 9 12 14 15 16 17 20 26 29 20 17 18 22 21 20 22 20 14 17 12 13 15 17 18 18 19 20 23 26 27 23 25 24 24 25 24 19 17 20 20
5 5 7 10 12 14 17 19 16 21 26 19 21 20 21 20 20 14 17 18 16 15 12 10 16 16 16 19 21 23 22 19 24 27 31 26 25 22 19 20 18 21 26
3 6 9 13 17 16 15 16 20 24 20 20 21 21 21 18 15 17 18 20 16 16 18 12 15 16 19 19 19 21 23 24 23 25 29 28 22 18 16 17 16 21 26
5 7 10 12 13 13 17 21 19 19 20 20 20 20 18 16 17 20 21 22 22 23 21 13 17 19 22 24 25 26 28 28 29 27 27 29 24 21 21 18 22 20 23
7 8 9 13 14 14 16 18 19 18 18 19 20 22 22 20 18 20 21 24 23 22 23 21 23 21 23 23 18 19 18 20 25 22 18 22 27 29 24 23 16 21 19
8 10 12 13 14 14 17 17 18 19 20 21 23 23 22 21 23 23 22 20 21 22 21 21 24 27 27 23 19 17 17 16 15 18 19 18 18 23 26 26 19 21 21
12 13 13 14 17 17 20 21 22 23 23 26 27 27 28 29 28 27 29 30 30 32 34 38 37 32 29 21 16 17 19 17 16 19 20 22 23 25 26 22 20 22 25
14 16 18 21 23 22 24 25 25 26 22 24 26 30 33 31 30 28 27 28 28 27 32 35 36 31 29 24 20 18 18 17 18 16 17 20 22 24 19 17 19 24 24
18 23 23 21 22 24 25 25 29 31 28 24 21 23 27 32 31 31 31 30 29 28 32 35 36 34 32 29 26 22 20 20 17 17 18 17 20 25 27 22 15 24 28
21 19 19 21 22 24 26 28 27 30 31 32 29 31 35 30 28 27 27 27 29 28 31 32 31 28 25 23 21 22 20 19 19 20 21 20 20 23 20 23 17 14 24
18 18 21 23 24 25 25 25 26 28 31 33 33 31 28 27 27 26 24 23 24 24 22 23 24 24 22 19 19 19 18 18 19 19 19 19 20 22 27 23 21 15 20
17 19 23 26 26 25 25 26 27 28 31 32 31 29 27 26 27 27 25 24 24 26 26 25 21 19 20 21 21 21 19 20 22 20 20 22 19 22 25 21 23 17 15
17 21 26 27 28 27 25 26 28 29 31 32 32 30 28 27 28 27 25 23 22 22 23 24 24 23 21 23 21 21 21 21 21 20 21 17 20 24 19 19 23 23 13
21 23 25 28 29 30 28 28 31 31 31 32 32 31 29 26 23 22 22 24 23 21 21 21 23 23 24 24 22 17 20 19 20 19 21 19 20 23 17 19 21 25 17
25 27 28 29 31 32 32 32 32 31 30 29 28 29 27 25 24 23 20 19 20 21 21 21 21 22 24 22 23 21 19 20 18 18 18 20 21 21 17 18 22 24 20
25 26 31 30 33 35 34 35 35 33 30 29 28 28 26 25 24 23 21 18 19 20 20 21 20 20 20 19 19 22 20 20 19 19 21 21 20 22 16 16 18 22 22
25 28 31 32 33 37 37 37 37 35 32 30 29 28 26 24 23 21 21 20 19 19 18 18 19 19 19 17 18 19 16 16 20 19 21 19 18 18 16 16 16 14 16
24 27 31 34 34 37 39 39 38 37 35 32 30 28 26 25 23 22 21 20 20 19 19 16 16 16 15 14 15 17 19 17 19 17 22 21 12 13 18 19 19 15 13
Wind_Direction
154 154 134 129 126 116 87 10 352 346 338 338 333 327 323 317 308 306 317 332 298 294 305 322 307 320 301 308 327 325 318 304 296 290 292 289 258 272 236 250 245 229 236
172 162 160 146 188 245 283 305 321 324 326 325 324 322 317 314 307 311 303 303 315 294 295 287 301 299 303 308 306 314 316 323 313 298 294 286 269 270 253 244 244 244 244
177 192 201 191 203 253 282 295 307 315 319 320 320 318 316 314 315 311 314 287 274 285 273 275 270 277 280 303 287 290 308 310 300 313 308 290 279 272 272 270 247 252 255
188 218 206 193 212 253 280 295 304 311 316 316 316 316 314 311 310 308 279 287 294 293 290 277 273 265 261 254 275 281 285 291 303 298 318 307 288 285 261 255 249 262 250
206 192 212 219 253 263 279 291 303 310 314 313 309 309 311 311 310 292 294 297 299 299 297 288 275 261 257 261 262 273 276 279 283 293 287 309 292 265 266 271 258 258 251
193 195 209 222 248 275 289 301 300 305 299 300 304 299 303 308 294 292 295 301 300 303 302 296 284 274 256 247 255 255 261 270 278 280 287 281 295 293 275 268 262 247 237
174 204 240 260 281 290 292 293 293 292 295 297 301 299 296 299 299 294 296 300 303 309 312 311 303 289 276 255 249 257 254 252 266 278 283 281 280 281 266 277 270 260 253
204 243 264 280 283 289 291 293 291 294 288 302 301 301 305 294 286 287 295 305 304 309 305 297 297 295 291 279 264 251 247 240 232 243 271 281 275 268 266 274 275 274 271
236 254 266 286 292 290 292 289 286 285 284 298 301 298 284 278 287 290 297 309 315 301 304 297 289 285 275 275 275 275 267 252 243 231 238 245 256 260 270 271 254 236 239
239 280 296 296 291 282 279 285 291 284 295 297 293 295 300 304 303 307 302 305 308 310 299 292 295 288 277 266 265 267 274 273 255 242 232 235 246 252 259 266 255 254 226
310 304 298 288 291 304 296 289 284 287 291 296 296 303 302 310 318 306 298 298 301 293 297 303 291 280 274 276 270 265 264 267 261 251 240 239 241 245 253 256 259 247 244
300 308 306 308 308 307 303 308 305 304 301 300 300 301 305 306 295 290 290 294 298 297 298 284 275 276 274 282 285 276 266 266 268 265 254 244 240 233 246 250 267 256 250
333 316 314 305 315 313 319 314 309 305 301 296 295 297 299 302 296 295 295 296 291 294 296 291 288 287 283 282 286 291 286 269 259 265 253 244 237 234 232 235 260 247 250
339 329 329 331 313 317 307 311 307 304 301 299 300 296 297 296 297 303 299 298 297 296 299 293 287 290 295 295 292 290 294 294 265 258 249 229 231 241 247 236 256 252 254
337 334 326 317 315 314 309 304 301 298 297 294 293 291 289 288 289 284 280 280 278 275 282 287 291 294 293 290 280 275 283 283 273 258 254 242 238 240 243 241 243 248 247
330 325 326 328 324 320 317 308 304 306 305 296 289 288 291 291 294 293 291 291 288 284 281 281 285 285 283 283 278 269 260 267 271 273 257 253 243 239 252 253 251 246 246
332 333 331 325 320 317 314 310 308 304 304 310 307 303 299 302 297 294 292 290 286 280 276 278 280 282 281 284 275 271 261 251 262 264 262 255 248 245 247 249 261 240 237
330 330 325 320 314 311 310 311 314 315 315 315 313 300 301 303 301 298 293 290 286 281 280 278 280 282 284 286 277 279 268 257 257 254 255 256 247 244 254 258 261 260 229
335 333 330 332 329 325 323 321 316 312 309 308 311 312 312 309 304 300 298 290 286 286 286 281 276 277 282 279 276 273 270 258 253 251 249 256 242 249 243 245 253 256 239
344 340 346 346 340 331 328 322 317 314 311 313 313 312 312 309 305 301 295 287 283 282 285 285 281 269 261 261 268 273 271 258 256 254 252 250 247 250 242 247 258 242 260
350 358 354 348 351 344 334 328 327 324 321 320 320 319 316 308 303 303 307 302 288 273 269 268 269 267 264 262 262 268 272 267 255 254 253 245 251 246 232 250 256 240 265
3 2 353 353 354 353 349 345 342 337 333 328 325 322 320 315 307 299 293 292 294 288 278 269 266 261 258 257 246 253 261 265 248 252 246 242 251 238 238 249 252 239 251
5 360 357 358 0 358 356 353 349 345 338 333 328 326 324 319 315 311 301 293 289 287 287 279 269 264 264 260 247 239 245 249 249 250 241 243 251 226 235 250 243 232 254
359 2 359 357 3 3 1 357 354 352 347 341 337 333 329 323 318 316 313 302 294 288 282 279 274 270 266 263 255 233 246 242 238 248 245 239 245 221 240 242 239 248 241
358 358 356 358 1 4 2 0 358 355 353 348 344 341 336 331 327 322 314 305 293 285 277 275 270 270 268 262 249 235 235 238 233 239 239 240 225 232 233 245 233 255 237
359 351 356 0 2 4 4 2 0 358 356 353 350 347 344 341 337 332 330 325 316 300 273 261 262 261 264 256 246 238 232 238 228 238 232 218 235 219 227 237 239 232 253